Location: *
(41.7492°S, 135.4150°W)
Time: 18:23:40
(UTC+00:00)

Cosmos 1500 Rocket - Pass Details

Date: 20 September 2021
Orbit: 602 x 632 km, 82.5° (Epoch: 16 October)

Event Time Altitude Azimuth Distance (km) Brightness Sun altitude
Exits shadow 12:32:19 57° 65° (ENE) 739 4.0 -26.4°
Maximum altitude 12:32:37 59° 86° (E) 727 4.0 -26.4°
Drops below altitude 10° 12:37:02 10° 164° (SSE) 2,026 6.7 -25.6°
Sets 12:39:19 0° 168° (SSE) 2,946 7.5 -25.2°
